Home   Weather   Fairfield   Past weeks
Flag for USA

Past Weather in Fairfield, North Carolina, USA — Yesterday and Last 2 Weeks

Now
49 °F

Scattered clouds.


Feels Like: 43 °F
Forecast: 49 / 44 °F
Wind: 16 mph from Northeast

Location: Manteo / Dare County Regional

Current Time: Dec 7, 2019 at 2:06:52 pm

Latest Report: Dec 7, 2019 at 1:35 pm


Visibility: 10 mi

Pressure: 30.33 "Hg

Humidity: 60%

Dew Point: 35 °F

Location of FairfieldLocation

Past Weather in Fairfield — Graph

°F

Fairfield Temperature Yesterday

Maximum temperature yesterday: 57 °F (at 2:15 pm)
Minimum temperature yesterday: 33 °F (at 5:35 am)
Average temperature yesterday: 48 °F

High & Low Weather Summary for the Past Weeks

 TemperatureHumidityPressure
High65 °F (Nov 26, 12:55 pm)100% (Nov 26, 3:35 am)30.33 "Hg (Nov 26, 3:35 am)
Low33 °F (Dec 6, 5:35 am)39% (Dec 5, 11:35 am)29.45 "Hg (Nov 24, 3:55 am)
Average50 °F72%29.93 "Hg
* Reported Nov 22 12:15 pm — Dec 7 12:55 pm, Fairfield. Weather by CustomWeather, © 2019

Note: Actual official high and low records may vary slightly from our data, if they occured in-between our weather recording intervals... More about our weather records

Fairfield Weather History for the Previous 24 Hours

Scroll right to see more
 ConditionsComfort  
Time TempWeatherWind HumidityBarometerVisibility
12:55 pm
Sat, Dec 7
50 °FScattered clouds.16 mph59%30.33 "Hg10 mi
12:35 pm50 °FScattered clouds.17 mph60%30.33 "Hg10 mi
12:15 pm50 °FScattered clouds.17 mph62%30.33 "Hg10 mi
11:55 am50 °FScattered clouds.17 mph61%30.33 "Hg10 mi
11:35 am51 °FScattered clouds.15 mph62%30.33 "Hg10 mi
11:15 am51 °FSunny.23 mph64%30.33 "Hg10 mi
10:55 am51 °FScattered clouds.20 mph64%30.33 "Hg10 mi
10:35 am51 °FScattered clouds.20 mph62%30.33 "Hg10 mi
10:15 am50 °FOvercast.20 mph64%30.33 "Hg10 mi
9:35 am49 °FOvercast.16 mph66%30.32 "Hg10 mi
9:15 am49 °FOvercast.20 mph68%30.32 "Hg10 mi
8:55 am49 °FMore clouds than sun.15 mph71%30.31 "Hg10 mi
8:35 am49 °FOvercast.18 mph74%30.30 "Hg10 mi
8:15 am49 °FOvercast.18 mph73%30.29 "Hg10 mi
7:55 am49 °FOvercast.20 mph75%30.28 "Hg10 mi
7:35 am49 °FOvercast.21 mph76%30.27 "Hg10 mi
7:15 am50 °FPartly sunny.20 mph76%30.26 "Hg10 mi
6:55 am50 °FPassing clouds.12 mph76%30.25 "Hg10 mi
6:35 am50 °FClear.15 mph74%30.24 "Hg10 mi
6:15 am50 °FClear.14 mph74%30.23 "Hg10 mi
5:55 am49 °FClear.9 mph78%30.22 "Hg10 mi
5:35 am49 °FClear.9 mph76%30.21 "Hg10 mi
5:15 am47 °FClear.8 mph77%30.21 "Hg10 mi
4:55 am46 °FClear.7 mph80%30.19 "Hg10 mi
3:55 am47 °FClear.3 mph79%30.18 "Hg10 mi
3:35 am47 °FPassing clouds.No wind77%30.18 "Hg10 mi
3:15 am48 °FPassing clouds.5 mph77%30.18 "Hg10 mi
2:55 am48 °FOvercast.No wind76%30.18 "Hg10 mi
2:35 am46 °FOvercast.No wind86%30.18 "Hg10 mi
2:15 am45 °FPassing clouds.No wind87%30.17 "Hg10 mi
1:55 am47 °FPassing clouds.3 mph86%30.16 "Hg10 mi
1:35 am48 °FClear.5 mph83%30.17 "Hg10 mi
1:15 am48 °FClear.3 mph82%30.16 "Hg10 mi
12:55 am49 °FClear.3 mph78%30.16 "Hg10 mi
12:35 am50 °FClear.3 mph71%30.16 "Hg10 mi
12:15 am51 °FClear.No wind69%30.17 "Hg10 mi
11:55 pm
Fri, Dec 6
51 °FPassing clouds.3 mph68%30.17 "Hg10 mi
11:35 pm50 °FPassing clouds.No wind76%30.17 "Hg10 mi
11:15 pm49 °FPassing clouds.No wind86%30.17 "Hg10 mi
10:55 pm50 °FPartly cloudy.3 mph82%30.17 "Hg10 mi
10:35 pm50 °FMostly cloudy.No wind81%30.17 "Hg10 mi
10:15 pm51 °FMostly cloudy.No wind80%30.17 "Hg10 mi
9:55 pm53 °FOvercast.3 mph71%30.18 "Hg10 mi
9:35 pm52 °FOvercast.3 mph71%30.18 "Hg10 mi
9:15 pm53 °FOvercast.5 mph69%30.18 "Hg10 mi
8:55 pm53 °FMostly cloudy.3 mph68%30.18 "Hg10 mi
8:35 pm54 °FMostly cloudy.3 mph62%30.18 "Hg10 mi
8:15 pm54 °FDrizzle. Mostly cloudy.6 mph62%30.18 "Hg10 mi
7:55 pm54 °FRain. Overcast.8 mph64%30.19 "Hg10 mi
6:55 pm51 °FPartly cloudy.No wind73%30.20 "Hg10 mi
6:35 pm52 °FPassing clouds.No wind65%30.19 "Hg10 mi
6:15 pm50 °FPassing clouds.No wind73%30.19 "Hg10 mi
5:55 pm51 °FClear.No wind70%30.18 "Hg10 mi
5:35 pm51 °FClear.No wind70%30.18 "Hg10 mi
5:15 pm51 °FClear.No wind71%30.18 "Hg10 mi
4:55 pm54 °FClear.No wind58%30.18 "Hg10 mi
4:35 pm53 °FScattered clouds.No wind63%30.18 "Hg10 mi
4:15 pm54 °FScattered clouds.No wind60%30.18 "Hg10 mi
3:55 pm54 °FScattered clouds.3 mph63%30.17 "Hg10 mi
3:35 pm55 °FScattered clouds.3 mph55%30.17 "Hg10 mi
2:55 pm56 °FScattered clouds.6 mph51%30.18 "Hg10 mi
2:35 pm56 °FPartly sunny.7 mph49%30.18 "Hg10 mi
2:15 pm57 °FPartly sunny.10 mph45%30.18 "Hg10 mi
Weather by CustomWeather, © 2019

See weather overview

Advertising